DW9064 Weather Reports


Display with metric or nautical units.
time (UTC)temp
F
wind
direction
speed
MPH
gust
MPH
rain 1hr
in
rain 24hr
in
rain mn
in
humidity
%
barometer
mb
20260901231420 78 321 4.0 6.0 0.00 0.00 0.00 36 1005.5
20260901230520 81 350 3.0 4.0 0.00 0.00 0.00 31 1005.4
20260901224720 84 83 2.0 5.0 0.00 0.00 0.00 17 1005.3
20260901223820 85 73 2.0 6.0 0.00 0.00 0.00 16 1005.3
20260901222920 86 108 1.0 8.0 0.00 0.00 0.00 16 1005.3
20260901222021 87 123 3.0 9.0 0.00 0.00 0.00 14 1005.5
20260901221120 87 88 3.0 8.0 0.00 0.00 0.00 14 1005.5
20260901220220 87 95 4.0 8.0 0.00 0.00 0.00 13 1005.4
20260901215320 85 88 2.0 8.0 0.00 0.00 0.00 15 1005.6
20260901213520 85 101 2.0 8.0 0.00 0.00 0.00 16 1005.8
20260901212622 85 105 3.0 10.0 0.00 0.00 0.00 17 1005.8
20260901211720 85 80 3.0 8.0 0.00 0.00 0.00 20 1005.9
20260901205920 81 62 2.0 8.0 0.00 0.00 0.00 27 1006.2
20260901205020 81 73 4.0 8.0 0.00 0.00 0.00 26 1006.5
20260901204120 82 67 2.0 8.0 0.00 0.00 0.00 25 1006.6
20260901203220 82 84 0.0 8.0 0.00 0.00 0.00 25 1006.7
20260901202320 83 106 3.0 9.0 0.00 0.00 0.00 25 1006.8
20260901201420 80 113 4.0 8.0 0.00 0.00 0.00 29 1006.9
20260901195620 80 112 4.0 9.0 0.00 0.00 0.00 29 1007.2
20260901194720 79 82 4.0 8.0 0.00 0.00 0.00 30 1007.5
20260901193820 77 70 2.0 8.0 0.00 0.00 0.00 35 1007.7
20260901191120 76 93 3.0 6.0 0.00 0.00 0.00 37 1008.1
20260901190220 74 102 4.0 8.0 0.00 0.00 0.00 39 1008.3
20260901185320 73 107 2.0 8.0 0.00 0.00 0.00 41 1008.6
20260901184420 71 125 4.0 9.0 0.00 0.00 0.00 42 1008.6
20260901182620 71 85 2.0 9.0 0.00 0.00 0.00 46 1008.6
20260901181720 70 117 2.0 8.0 0.00 0.00 0.00 47 1008.8
20260901180820 69 97 3.0 8.0 0.00 0.00 0.00 47 1008.9
20260901175020 68 71 3.0 8.0 0.00 0.00 0.00 50 1009.0
20260901174120 69 50 4.0 8.0 0.00 0.00 0.00 49 1009.2
20260901173220 68 70 2.0 8.0 0.00 0.00 0.00 51 1009.2
20260901172320 67 81 3.0 8.0 0.00 0.00 0.00 52 1009.1
20260901171420 67 90 4.0 10.0 0.00 0.00 0.00 54 1009.5
20260901170520 66 35 2.0 9.0 0.00 0.00 0.00 54 1009.7
20260901165619 65 72 6.0 9.0 0.00 0.00 0.00 57 1009.9
20260901164720 64 113 4.0 8.0 0.00 0.00 0.00 57 1010.2
20260901162920 64 60 3.0 8.0 0.00 0.00 0.00 60 1010.2
20260901162019 62 84 3.0 4.0 0.00 0.00 0.00 63 1010.3
20260901161120 61 88 0.0 7.0 0.00 0.00 0.00 63 1010.4
20260901160219 60 54 3.0 8.0 0.00 0.00 0.00 66 1010.7
20260901155320 60 57 2.0 9.0 0.00 0.00 0.00 65 1010.9
20260901154419 60 66 2.0 8.0 0.00 0.00 0.00 66 1010.9
20260901153520 60 90 3.0 7.0 0.00 0.00 0.00 67 1011.1
20260901152620 60 58 2.0 6.0 0.00 0.00 0.00 68 1011.0
20260901151720 59 35 2.0 8.0 0.00 0.00 0.00 72 1011.2
20260901150820 58 54 2.0 11.0 0.00 0.00 0.00 72 1011.4
20260901145919 58 51 4.0 11.0 0.00 0.00 0.00 72 1011.4
20260901145020 58 28 2.0 11.0 0.00 0.00 0.00 74 1011.1
20260901144119 56 52 3.0 7.0 0.00 0.00 0.00 78 1011.1
20260901143220 54 50 2.0 4.0 0.00 0.00 0.00 82 1011.2
20260901142320 52 23 1.0 4.0 0.00 0.00 0.00 85 1011.3
20260901135619 49 7 2.0 5.0 0.00 0.00 0.00 87 1011.4
20260901133819 49 25 2.0 5.0 0.00 0.00 0.00 87 1011.3
20260901132919 49 4 3.0 6.0 0.00 0.00 0.00 86 1011.3
20260901132055 49 355 4.0 8.0 0.00 0.00 0.00 85 1011.3
20260901131119 49 351 5.0 8.0 0.00 0.00 0.00 84 1011.4
20260901130219 50 345 4.0 9.0 0.00 0.00 0.00 85 1011.4
20260901125319 49 31 4.0 7.0 0.00 0.00 0.00 85 1011.4
20260901124419 49 16 2.0 8.0 0.00 0.00 0.00 84 1011.5
20260901123519 50 19 3.0 8.0 0.00 0.00 0.00 84 1011.6
20260901122619 50 11 4.0 7.0 0.00 0.00 0.00 83 1011.6
20260901121719 50 26 4.0 5.0 0.00 0.00 0.00 82 1011.5
20260901120819 51 23 2.0 8.0 0.00 0.00 0.00 82 1011.4
20260901115919 50 13 4.0 8.0 0.00 0.00 0.00 82 1011.5
20260901115019 51 32 4.0 8.0 0.00 0.00 0.00 83 1011.4
20260901114119 50 349 3.0 8.0 0.00 0.00 0.00 82 1011.3
20260901113219 50 5 4.0 7.0 0.00 0.00 0.00 80 1011.3
20260901110519 51 357 4.0 8.0 0.00 0.00 0.00 79 1011.3
20260901104719 51 352 6.0 8.0 0.00 0.00 0.00 78 1011.1
20260901103819 52 8 4.0 8.0 0.00 0.00 0.00 77 1011.1
20260901102919 52 1 3.0 6.0 0.00 0.00 0.00 78 1011.2
20260901102019 52 347 2.0 7.0 0.00 0.00 0.00 77 1011.2
20260901100219 52 350 2.0 8.0 0.00 0.00 0.00 77 1011.2
20260901095318 52 355 4.0 8.0 0.00 0.00 0.00 77 1011.2
20260901094418 52 350 5.0 8.0 0.00 0.00 0.00 76 1011.1
20260901093518 53 358 5.0 8.0 0.00 0.00 0.00 75 1011.1
20260901092619 52 8 1.0 8.0 0.00 0.00 0.00 75 1011.1
20260901091719 52 4 6.0 8.0 0.00 0.00 0.00 74 1011.0
20260901090818 53 2 3.0 7.0 0.00 0.00 0.00 74 1011.0
20260901085919 52 354 4.0 8.0 0.00 0.00 0.00 75 1011.0
20260901084118 53 1 4.0 8.0 0.00 0.00 0.00 73 1011.0
20260901083219 53 3 6.0 8.0 0.00 0.00 0.00 72 1011.0
20260901082318 53 13 2.0 7.0 0.00 0.00 0.00 73 1011.1
20260901081419 52 345 2.0 8.0 0.00 0.00 0.00 72 1011.1
20260901080519 53 325 6.0 8.0 0.00 0.00 0.00 71 1010.9
20260901075618 54 342 7.0 8.0 0.00 0.00 0.00 70 1010.9
20260901074718 54 341 6.0 8.0 0.00 0.00 0.00 69 1010.8
20260901073819 54 341 6.0 8.0 0.00 0.00 0.00 70 1010.9
20260901072018 54 350 4.0 8.0 0.00 0.00 0.00 68 1010.8
20260901071118 54 337 6.0 8.0 0.00 0.00 0.00 67 1010.8
20260901070218 55 343 5.0 8.0 0.00 0.00 0.00 66 1010.7
20260901065318 55 342 4.0 9.0 0.00 0.00 0.00 66 1010.7
20260901064418 55 355 4.0 9.0 0.00 0.00 0.00 66 1010.7
20260901063518 55 343 5.0 9.0 0.00 0.00 0.00 66 1010.8
20260901062618 55 325 5.0 9.0 0.00 0.00 0.00 66 1010.8
20260901061718 57 344 6.0 9.0 0.00 0.00 0.00 63 1010.7
20260901060818 57 351 6.0 9.0 0.00 0.00 0.00 63 1010.8
20260901055918 57 345 5.0 9.0 0.00 0.00 0.00 62 1010.9
20260901055018 57 336 6.0 8.0 0.00 0.00 0.00 61 1010.8
20260901054118 58 348 6.0 8.0 0.00 0.00 0.00 61 1010.9
20260901053218 57 333 6.0 8.0 0.00 0.00 0.00 63 1011.0
20260901052318 58 325 6.0 8.0 0.00 0.00 0.00 63 1010.8
20260901051418 58 335 4.0 8.0 0.00 0.00 0.00 62 1010.9
20260901045618 57 327 6.0 9.0 0.00 0.00 0.00 64 1010.9
20260901044718 58 323 5.0 8.0 0.00 0.00 0.00 63 1011.0
20260901043818 57 314 5.0 8.0 0.00 0.00 0.00 65 1010.9
20260901042918 58 319 6.0 8.0 0.00 0.00 0.00 65 1010.8
20260901042018 58 329 6.0 8.0 0.00 0.00 0.00 64 1010.8
20260901041118 58 321 6.0 8.0 0.00 0.00 0.00 64 1010.8
20260901035318 59 314 8.0 9.0 0.00 0.00 0.00 63 1010.7
20260901034418 59 314 7.0 8.0 0.00 0.00 0.00 62 1010.6
20260901033518 59 314 5.0 9.0 0.00 0.00 0.00 62 1010.5
20260901032618 60 314 8.0 9.0 0.00 0.00 0.00 61 1010.4
20260901031718 60 314 7.0 10.0 0.00 0.00 0.00 59 1010.2
20260901030818 61 318 8.0 9.0 0.00 0.00 0.00 59 1010.2
20260901025918 61 320 7.0 9.0 0.00 0.00 0.00 59 1010.1
20260901025018 61 322 7.0 10.0 0.00 0.00 0.00 58 1010.1
20260901024118 61 314 8.0 9.0 0.00 0.00 0.00 59 1010.1
20260901023218 62 317 8.0 10.0 0.00 0.00 0.00 58 1010.1
20260901022318 63 317 8.0 10.0 0.00 0.00 0.00 57 1010.0
20260901020518 63 314 8.0 10.0 0.00 0.00 0.00 56 1010.2
20260901015618 64 314 8.0 10.0 0.00 0.00 0.00 56 1010.2
20260901014718 64 314 8.0 9.0 0.00 0.00 0.00 57 1010.3
20260901013818 65 314 8.0 9.0 0.00 0.00 0.00 56 1010.3
20260901012918 65 314 8.0 9.0 0.00 0.00 0.00 54 1010.4
20260901011117 67 314 8.0 9.0 0.00 0.00 0.00 52 1010.6
20260901010217 68 316 8.0 9.0 0.00 0.00 0.00 49 1010.6
20260901005317 69 314 7.0 8.0 0.00 0.00 0.00 47 1010.8
20260901004418 71 314 7.0 8.0 0.00 0.00 0.00 42 1010.7
20260901003518 75 321 6.0 8.0 0.00 0.00 0.00 34 1010.8
20260901002618 79 325 4.0 6.0 0.00 0.00 0.00 26 1010.8
20260831235917 83 173 2.0 7.0 0.00 0.00 0.00 19 1011.1
20260831234118 83 176 3.0 9.0 0.00 0.00 0.00 14 1011.4
20260831233217 83 157 4.0 8.0 0.00 0.00 0.00 15 1011.5
20260831232317 83 181 4.0 8.0 0.00 0.00 0.00 14 1011.5